Content
SEND FEEDBACK

Daily
Averages
Monthly
Summary
United States of America

UMATAC, GUAM


Home > North America > United States > Guam
Elevation: 58 meters     Latitude: 13 17N     Longitude: 144 40E

WEATHER
 
SELECT A DAY
Number of Records: 341,524;   Date Range: 1/1/95 - 7/7/14
 
SHARE

PRINT THIS DATA

[ ← Previous Day ]
WEATHER ALMANAC - 11 MARCH, 2013
[ Next Day → ]
[ °F ]   °C
Weather ElementAverageHighLow
Temperature25.6 °C29 °C (11:03 am)23 °C (5:35 am)
Dewpoint23.1 °C24.1 °C (8:55 am)22 °C (12:53 am)
Humidity86.8 %100 % (6:12 am)69 % (1:55 pm)
Barometer1010.5 hPa1012.2 hPa (9:55 am)1008.5 hPa (3:25 pm)
Wind Speed18.2 km/h27.8 km/h (9:49 pm)
Wind Gust35.2 km/h (2:14 pm)
Weather ElementAverage
Visibility14.6 km
Wind DirectionENE (56.6 °)

Weather ElementTotal
Precipitation---
Cooling Degree Days7.7 (Base 18.3)
Growing Degree Days16 (Base 10)
Averaged from 127 records on 11 March, 2013
WEATHER CONDITIONS BREAKOUT
WIND DIRECTION BREAKOUT
WEATHER BY HOUR - 11 MARCH, 2013
[ °F ]   °C
Local TimeTemperatureDewpointHumidityBarometerVisibilityWind DirectionWind SpeedGust SpeedPrecipitationEventsConditions
12:07 AM25 °C23 °C89 %1011.5 hPa16.1 kmENE (60°)24.1 km/hScattered Clouds
12:53 AM25 °C22 °C83 %1011.5 hPa16.1 kmENE (60°)16.7 km/hMostly Cloudy
12:55 AM24.6 °C22.4 °C87 %1011.5 hPa16.1 kmENE (60°)18.5 km/hMostly Cloudy
1:03 AM25 °C23 °C89 %1011.2 hPa16.1 kmENE (60°)14.8 km/hScattered Clouds
1:09 AM25 °C23 °C89 %1011.2 hPa16.1 kmENE (60°)18.5 km/hMostly Cloudy
1:11 AM25 °C23 °C89 %1011.2 hPa16.1 kmENE (60°)16.7 km/hScattered Clouds
1:28 AM25 °C23 °C89 %1011.2 hPa16.1 kmEast (80°)18.5 km/hRainLight Rain
1:38 AM24 °C22 °C89 %1011.2 hPa16.1 kmENE (60°)11.1 km/hMostly Cloudy
1:46 AM24 °C23 °C94 %1011.2 hPa16.1 kmENE (70°)13 km/hMostly Cloudy
1:54 AM25 °C23 °C89 %1011.2 hPa16.1 kmENE (60°)14.8 km/hMostly Cloudy
1:55 AM24.5 °C22.8 °C90 %1011.2 hPa16.1 kmENE (60°)16.7 km/h0 mmMostly Cloudy
2:55 AM24.6 °C22.5 °C88 %1010.8 hPa16.1 kmENE (60°)16.7 km/hMostly Cloudy
3:55 AM24.5 °C22.5 °C89 %1010.8 hPa16.1 kmNE (50°)13 km/hScattered Clouds
4:55 AM24.8 °C22.7 °C88 %1010.8 hPa16.1 kmNE (50°)11.1 km/hOvercast
5:06 AM24 °C22 °C89 %1010.8 hPa16.1 kmEast (100°)13 km/hOvercast
5:15 AM24 °C22 °C89 %1010.8 hPa16.1 kmESE (120°)9.3 km/hMostly Cloudy
5:16 AM24 °C22 °C89 %1010.8 hPa16.1 kmSE (130°)9.3 km/hMostly Cloudy
5:35 AM23 °C22 °C94 %1010.8 hPa16.1 kmSE (130°)11.1 km/hRainLight Rain
5:46 AM23 °C22 °C94 %1010.8 hPa16.1 kmSSE (150°)7.4 km/hRainLight Rain
5:47 AM23 °C22 °C94 %1010.8 hPa16.1 kmSSE (160°)7.4 km/hMostly Cloudy
5:52 AM23 °C22 °C94 %1010.8 hPa16.1 kmCalmMostly Cloudy
5:54 AM23 °C22 °C94 %1010.8 hPa16.1 kmCalmScattered Clouds
5:55 AM23.2 °C22.2 °C94 %1010.8 hPa16.1 kmCalm0 mmScattered Clouds
5:56 AM23 °C22 °C94 %1010.8 hPa16.1 kmSE (140°)5.6 km/hMostly Cloudy
6:01 AM23 °C22 °C94 %1011.2 hPa12.9 kmSE (130°)9.3 km/hRainLight Rain
6:03 AM23 °C22 °C94 %1011.2 hPa11.3 kmSE (130°)11.1 km/hRainRain
6:09 AM23 °C22 °C94 %1011.2 hPa6.4 kmEast (90°)13 km/hRainRain
6:11 AM23 °C22 °C94 %1011.2 hPa4.8 kmEast (90°)13 km/hRainLight Rain
6:12 AM23 °C23 °C100 %1011.2 hPa4.8 kmEast (90°)13 km/hRainRain
6:13 AM23 °C23 °C100 %1011.2 hPa4.8 kmEast (90°)11.1 km/hRainRain
6:15 AM23 °C22 °C94 %1011.2 hPa4.8 kmEast (90°)9.3 km/hRainRain
6:38 AM23 °C23 °C100 %1011.5 hPa12.9 kmEast (100°)5.6 km/hMostly Cloudy
6:55 AM23.5 °C23 °C97 %1011.9 hPa16.1 kmCalm0 mmMostly Cloudy
6:59 AM23 °C23 °C100 %1011.9 hPa16.1 kmCalmMostly Cloudy
7:00 AM23 °C23 °C100 %1011.9 hPa16.1 kmCalmMostly Cloudy
7:02 AM23 °C23 °C100 %1011.9 hPa16.1 kmCalmScattered Clouds
7:55 AM25.5 °C23.6 °C89 %1011.9 hPa16.1 kmNE (40°)16.7 km/hClear
8:55 AM26.6 °C24.1 °C86 %1011.9 hPa16.1 kmNE (40°)22.2 km/hScattered Clouds
8:56 AM27 °C24 °C84 %1011.9 hPa16.1 kmNE (40°)22.2 km/hMostly Cloudy
8:59 AM27 °C24 °C84 %1011.9 hPa16.1 kmNE (40°)22.2 km/hScattered Clouds
9:55 AM27.6 °C22.4 °C73 %1012.2 hPa16.1 kmNE (40°)25.9 km/hClear
10:55 AM28.3 °C22.6 °C71 %1011.9 hPa16.1 kmNNE (20°)22.2 km/hPartly Cloudy
11:03 AM29 °C23 °C70 %1011.9 hPa16.1 kmNNE (30°)22.2 km/hMostly Cloudy
11:19 AM28 °C23 °C74 %1011.5 hPa16.1 kmNorth (10°)22.2 km/hScattered Clouds
11:38 AM28 °C23 °C74 %1011.5 hPa16.1 kmNNE (30°)22.2 km/hMostly Cloudy
11:41 AM28 °C23 °C74 %1011.5 hPa16.1 kmNNE (20°)24.1 km/hMostly Cloudy
11:48 AM28 °C23 °C74 %1011.5 hPa16.1 kmNNE (20°)24.1 km/hMostly Cloudy
11:55 AM28.1 °C23.2 °C75 %1011.2 hPa16.1 kmNNE (20°)22.2 km/hMostly Cloudy
12:03 PM28 °C23 °C74 %1011.2 hPa16.1 kmNNE (30°)24.1 km/hMostly Cloudy
12:09 PM28 °C23 °C74 %1011.2 hPa16.1 kmNNE (20°)24.1 km/hMostly Cloudy
12:13 PM28 °C23 °C74 %1011.2 hPa16.1 kmNNE (20°)24.1 km/hMostly Cloudy
12:45 PM28 °C23 °C74 %1010.5 hPa16.1 kmNE (40°)20.4 km/hMostly Cloudy
12:55 PM28.5 °C23.1 °C72 %1010.2 hPa16.1 kmNNE (30°)20.4 km/hScattered Clouds
1:07 PM28 °C23 °C74 %1010.2 hPa16.1 kmNorth (10°)22.2 km/hMostly Cloudy
1:25 PM28 °C23 °C74 %1009.8 hPa16.1 kmNNE (20°)22.2 km/hMostly Cloudy
1:40 PM28 °C23 °C74 %1009.8 hPa16.1 kmNNE (20°)22.2 km/hMostly Cloudy
1:44 PM28 °C23 °C74 %1009.8 hPa16.1 kmNNE (20°)24.1 km/hScattered Clouds
1:55 PM28.6 °C22.5 °C69 %1009.5 hPa16.1 kmNNE (20°)24.1 km/hScattered Clouds
2:14 PM28 °C23 °C74 %1009.5 hPa16.1 kmNNE (30°)25.9 km/h35.2 km/hMostly Cloudy
2:43 PM28 °C24 °C79 %1009.1 hPa16.1 kmNorth (10°)22.2 km/hMostly Cloudy
2:55 PM27.3 °C23.5 °C80 %1008.8 hPa16.1 kmNorth (10°)22.2 km/hMostly Cloudy
3:00 PM27 °C24 °C84 %1008.8 hPa16.1 kmNorth (10°)18.5 km/hScattered Clouds
3:01 PM27 °C24 °C84 %1008.8 hPa16.1 kmNorth (360°)18.5 km/hMostly Cloudy
3:04 PM27 °C23 °C79 %1008.8 hPa16.1 kmNorth (360°)20.4 km/hScattered Clouds
3:06 PM28 °C23 °C74 %1008.8 hPa16.1 kmNorth (360°)22.2 km/hMostly Cloudy
3:25 PM27 °C24 °C84 %1008.5 hPa16.1 kmNorth (360°)20.4 km/hMostly Cloudy
3:32 PM27 °C24 °C84 %1008.5 hPa16.1 kmNorth (10°)18.5 km/hOvercast
3:48 PM28 °C24 °C79 %1008.5 hPa16.1 kmNorth (10°)20.4 km/hOvercast
3:49 PM28 °C24 °C79 %1008.5 hPa16.1 kmNorth (10°)18.5 km/hOvercast
3:55 PM27.4 °C23.5 °C79 %1008.5 hPa16.1 kmNNE (20°)18.5 km/hMostly Cloudy
4:02 PM27 °C23 °C79 %1008.5 hPa16.1 kmNNE (20°)13 km/hLight Drizzle
4:06 PM27 °C24 °C84 %1008.5 hPa16.1 kmNNE (30°)20.4 km/hLight Drizzle
4:10 PM27 °C24 °C84 %1008.5 hPa16.1 kmNNE (30°)18.5 km/hLight Drizzle
4:12 PM27 °C24 °C84 %1008.5 hPa16.1 kmNNE (20°)16.7 km/hMostly Cloudy
4:14 PM27 °C23 °C79 %1008.5 hPa16.1 kmNNE (20°)18.5 km/hMostly Cloudy
4:24 PM28 °C23 °C74 %1008.5 hPa16.1 kmNNE (30°)16.7 km/hScattered Clouds
4:25 PM28 °C23 °C74 %1008.5 hPa16.1 kmNNE (30°)18.5 km/hMostly Cloudy
4:40 PM27 °C23 °C79 %1008.8 hPa16.1 kmNNE (30°)20.4 km/hScattered Clouds
4:51 PM27 °C24 °C84 %1008.8 hPa16.1 kmNNE (30°)22.2 km/hMostly Cloudy
4:55 PM27.2 °C23.5 °C80 %1008.8 hPa16.1 kmNNE (20°)22.2 km/h0 mmMostly Cloudy
4:57 PM27 °C23 °C79 %1008.8 hPa16.1 kmNNE (30°)18.5 km/hMostly Cloudy
5:27 PM27 °C23 °C79 %1009.1 hPa16.1 kmNNE (20°)20.4 km/hMostly Cloudy
5:52 PM26 °C23 °C83 %1009.1 hPa16.1 kmNE (40°)16.7 km/hMostly Cloudy
5:55 PM26.1 °C22.8 °C82 %1009.1 hPa16.1 kmNE (40°)16.7 km/hMostly Cloudy
5:58 PM26 °C23 °C83 %1009.1 hPa12.9 kmNNE (20°)14.8 km/hRainRain
6:06 PM26 °C24 °C89 %1009.1 hPa12.9 kmNNE (30°)16.7 km/hRainLight Rain
6:07 PM26 °C24 °C89 %1009.5 hPa14.5 kmNNE (30°)18.5 km/hOvercast
6:18 PM26 °C24 °C89 %1009.5 hPa16.1 kmNE (40°)22.2 km/hMostly Cloudy
6:21 PM26 °C24 °C89 %1009.5 hPa16.1 kmNE (40°)16.7 km/hMostly Cloudy
6:22 PM26 °C24 °C89 %1009.5 hPa16.1 kmNE (40°)16.7 km/hMostly Cloudy
6:32 PM25 °C24 °C94 %1009.5 hPa16.1 kmNE (40°)22.2 km/hMostly Cloudy
6:46 PM25 °C23 °C89 %1009.5 hPa16.1 kmNE (40°)18.5 km/hMostly Cloudy
6:50 PM25 °C23 °C89 %1009.5 hPa16.1 kmNNE (30°)20.4 km/hRainRain
6:51 PM25 °C24 °C94 %1009.8 hPa16.1 kmNNE (30°)22.2 km/hRainRain
6:55 PM25.1 °C23.6 °C91 %1009.5 hPa9.7 kmENE (70°)13 km/h0 mmRainHeavy Rain
7:03 PM25 °C24 °C94 %1009.8 hPa11.3 kmNE (40°)20.4 km/hRainLight Rain
7:05 PM25 °C24 °C94 %1009.5 hPa14.5 kmNE (40°)20.4 km/hMostly Cloudy
7:17 PM25 °C23 °C89 %1009.8 hPa16.1 kmNE (40°)20.4 km/hMostly Cloudy
7:22 PM25 °C23 °C89 %1009.8 hPa16.1 kmNE (40°)20.4 km/hScattered Clouds
7:55 PM24.9 °C23 °C89 %1009.8 hPa16.1 kmNE (40°)20.4 km/h0 mmPartly Cloudy
8:09 PM25 °C23 °C89 %1010.2 hPa16.1 kmNE (40°)24.1 km/hMostly Cloudy
8:11 PM25 °C23 °C89 %1010.2 hPa16.1 kmNE (40°)25.9 km/hMostly Cloudy
8:37 PM25 °C23 °C89 %1010.2 hPa16.1 kmNNE (30°)25.9 km/hLight Drizzle
8:45 PM24 °C23 °C94 %1010.2 hPa16.1 kmNNE (30°)20.4 km/hMostly Cloudy
8:47 PM24 °C23 °C94 %1010.2 hPa16.1 kmNNE (30°)22.2 km/hMostly Cloudy
8:55 PM24.2 °C23.4 °C95 %1010.5 hPa16.1 kmNE (40°)18.5 km/h0 mmMostly Cloudy
9:23 PM24 °C23 °C94 %1010.5 hPa16.1 kmNE (40°)18.5 km/hMostly Cloudy
9:49 PM25 °C23 °C89 %1010.8 hPa16.1 kmNE (50°)27.8 km/hMostly Cloudy
9:55 PM24.6 °C23.4 °C93 %1010.8 hPa16.1 kmNE (40°)24.1 km/hMostly Cloudy
10:23 PM25 °C24 °C94 %1010.8 hPa16.1 kmNNE (30°)18.5 km/hMostly Cloudy
10:26 PM25 °C24 °C94 %1010.8 hPa16.1 kmNNE (30°)22.2 km/hMostly Cloudy
10:30 PM25 °C24 °C94 %1010.8 hPa16.1 kmNNE (30°)24.1 km/hMostly Cloudy
10:36 PM25 °C24 °C94 %1010.8 hPa16.1 kmNE (40°)25.9 km/hOvercast
10:55 PM24.9 °C23.5 °C92 %1010.8 hPa14.5 kmNE (50°)20.4 km/h0 mmRainLight Rain
10:56 PM25 °C24 °C94 %1010.8 hPa14.5 kmNE (50°)18.5 km/hRainLight Rain
11:05 PM25 °C23 °C89 %1010.8 hPa11.3 kmENE (70°)25.9 km/hRainRain
11:07 PM25 °C23 °C89 %1010.8 hPa6.4 kmENE (60°)22.2 km/hRainRain
11:20 PM24 °C23 °C94 %1010.8 hPa8 kmENE (70°)24.1 km/hRainLight Rain
11:23 PM24 °C23 °C94 %1010.8 hPa8 kmENE (70°)27.8 km/hRainLight Rain
11:29 PM24 °C23 °C94 %1010.8 hPa6.4 kmEast (80°)25.9 km/hRainLight Rain
11:31 PM24 °C23 °C94 %1010.8 hPa6.4 kmEast (80°)25.9 km/hRainLight Rain
11:32 PM24 °C23 °C94 %1010.8 hPa6.4 kmEast (80°)25.9 km/hRainLight Rain
11:47 PM24 °C23 °C94 %1010.8 hPa9.7 kmEast (80°)25.9 km/h33.3 km/hRainLight Rain
11:49 PM24 °C23 °C94 %1010.8 hPa6.4 kmENE (70°)24.1 km/h33.3 km/hRainLight Rain
11:55 PM23.7 °C22.9 °C95 %1010.8 hPa8 kmEast (80°)20.4 km/h0 mmRainLight Rain
11:57 PM24 °C23 °C94 %1010.8 hPa9.7 kmEast (80°)20.4 km/hRainLight Rain
11:59 PM24 °C23 °C94 %1010.8 hPa12.9 kmEast (80°)18.5 km/hOvercast
Hourly data recorded from PGUA, located 0 kilometers away from Umatac, Guam







STORIES FROM OUR PARTNERS